Youngstown, OH

2:06 PM EST on December 06, 2019 (GMT -0500)
Youngstown-Warren Regional

Weather History for KYNG - September, 2019

Change the Weather History Date:

Thursday, September 12, 2019

  Actual Average Record
Temperature  
Mean Temperature 71 °F 63 °F  
Max Temperature 79 °F 74 °F 95 °F (1952)
Min Temperature 63 °F 53 °F 38 °F (1992)
Degree Days  
Heating Degree Days 0 4  
Month to date heating degree days 9 30  
Since 1 July heating degree days 15 68  
Cooling Degree Days 6 2  
Month to date cooling degree days 41 31  
Year to date cooling degree days 705 517  
Growing Degree Days 21 (Base 50)    
Moisture  
Dew Point 65 °F    
Average Humidity 85    
Maximum Humidity 93    
Minimum Humidity 69    
Precipitation  
Precipitation 0.03 in 0.13 in 1.54 in (2015)
Month to date precipitation 1.38 1.51  
Year to date precipitation 35.90 27.73  
Snow  
Snow 0.00 in 0.00 in - ()
Month to date snowfall 0.0 0.0  
Since 1 July snowfall 0.0 0.0  
Since 1 September snowfall 0.0 0.0  
Snow Depth 0.00 in    
Sea Level Pressure  
Sea Level Pressure 30.15 in    
Wind  
Wind Speed 5 mph ()    
Max Wind Speed 20 mph    
Max Gust Speed 25 mph    
Visibility 9.5 miles    
Events Fog , Rain , Thunderstorm    
T = Trace of Precipitation, MM = Missing Value Source: Averaged Metar Reports

Daily Weather History Graph

Daily Weather History Graph

Search for Another Location

Airport or City:

Astronomy

Sep. 12, 2019 Rise Set
Actual Time 6:59 AM EDT 7:37 PM EDT
Civil Twilight 6:32 AM EDT 8:05 PM EDT
Nautical Twilight 5:59 AM EDT 8:38 PM EDT
Astronomical Twilight 5:25 AM EDT 9:11 PM EDT
Moon 7:22 PM EDT (9/12) 5:16 AM EDT (9/12)
Length of Visible Light 13h 33m
Length of Day
12h 37m
Waxing Gibbous, 98% of the Moon is Illuminated
Sep 12
Waxing Gibbous
Sep 14
Full
Sep 21
Last Quarter
Sep 28
New
Oct 5
First Quarter

Hourly Weather History & Observations

Time (EDT) Temp. Dew Point Humidity Pressure Visibility Wind Dir Wind Speed Gust Speed Precip Events Conditions
12:51 AM 69.1 °F 66.9 °F 93% 30.07 in 10.0 mi South 5.8 mph - N/A   Overcast
1:51 AM 70.0 °F 66.9 °F 90% 30.06 in 10.0 mi South 6.9 mph - N/A Thunderstorm Thunderstorm
2:05 AM 71.1 °F 66.9 °F 87% 30.09 in 10.0 mi West 6.9 mph 24.2 mph 0.01 in Rain , Thunderstorm Light Thunderstorms and Rain
2:35 AM 71.1 °F 66.9 °F 87% 30.08 in 10.0 mi Calm Calm - 0.01 in   Overcast
2:51 AM 69.1 °F 66.0 °F 90% 30.05 in 8.0 mi Calm Calm - 0.01 in   Overcast
3:51 AM 68.0 °F 66.0 °F 93% 30.07 in 10.0 mi Calm Calm - N/A Fog Shallow Fog
4:51 AM 66.9 °F 64.9 °F 93% 30.08 in 10.0 mi SSW 4.6 mph - N/A Fog Patches of Fog
5:51 AM 68.0 °F 66.0 °F 93% 30.09 in 0.5 mi SW 3.5 mph - N/A Fog Fog
6:51 AM 68.0 °F 66.0 °F 93% 30.12 in 4.0 mi West 10.4 mph - 0.02 in   Overcast
7:51 AM 68.0 °F 64.9 °F 90% 30.14 in 10.0 mi West 5.8 mph - 0.00 in Rain Light Rain
8:51 AM 70.0 °F 66.0 °F 87% 30.14 in 10.0 mi WSW 5.8 mph - 0.00 in   Mostly Cloudy
9:14 AM 71.1 °F 66.0 °F 84% 30.16 in 10.0 mi West 6.9 mph - N/A   Overcast
9:51 AM 72.0 °F 66.9 °F 84% 30.16 in 10.0 mi West 5.8 mph - N/A   Overcast
10:51 AM 73.9 °F 68.0 °F 82% 30.15 in 10.0 mi SW 4.6 mph - 0.00 in   Overcast
11:33 AM 73.9 °F 66.9 °F 79% 30.17 in 10.0 mi WSW 5.8 mph - N/A   Overcast
11:51 AM 73.9 °F 66.9 °F 79% 30.16 in 10.0 mi West 4.6 mph - N/A   Overcast
12:51 PM 75.9 °F 66.9 °F 74% 30.15 in 10.0 mi Variable 3.5 mph - N/A   Overcast
1:51 PM 77.0 °F 66.9 °F 71% 30.15 in 10.0 mi WNW 8.1 mph - N/A   Overcast
2:51 PM 78.1 °F 68.0 °F 71% 30.14 in 10.0 mi WNW 8.1 mph - N/A   Overcast
3:51 PM 77.0 °F 68.0 °F 74% 30.15 in 10.0 mi NW 9.2 mph - N/A   Overcast
4:51 PM 75.0 °F 68.0 °F 79% 30.16 in 10.0 mi North 9.2 mph - N/A   Mostly Cloudy
5:15 PM 73.9 °F 66.9 °F 79% 30.18 in 10.0 mi North 8.1 mph - N/A   Mostly Cloudy
5:41 PM 73.0 °F 66.0 °F 79% 30.17 in 10.0 mi North 8.1 mph - N/A   Mostly Cloudy
5:51 PM 73.9 °F 66.9 °F 79% 30.16 in 10.0 mi NNE 10.4 mph - N/A   Mostly Cloudy
6:51 PM 72.0 °F 64.9 °F 78% 30.17 in 10.0 mi North 5.8 mph - N/A   Mostly Cloudy
7:51 PM 68.0 °F 63.0 °F 84% 30.17 in 10.0 mi NNE 6.9 mph - N/A   Scattered Clouds
8:25 PM 66.9 °F 63.0 °F 87% 30.20 in 10.0 mi North 6.9 mph - N/A   Mostly Cloudy
8:51 PM 66.0 °F 62.1 °F 87% 30.19 in 10.0 mi NNE 12.7 mph - N/A   Mostly Cloudy
9:51 PM 64.9 °F 61.0 °F 87% 30.20 in 10.0 mi NE 6.9 mph - N/A   Scattered Clouds
10:23 PM 64.0 °F 61.0 °F 90% 30.21 in 10.0 mi NE 5.8 mph - N/A   Mostly Cloudy
10:51 PM 63.0 °F 61.0 °F 93% 30.21 in 10.0 mi NNE 3.5 mph - N/A   Mostly Cloudy
11:24 PM 63.0 °F 60.1 °F 90% 30.22 in 10.0 mi NE 4.6 mph - N/A   Scattered Clouds
11:51 PM 63.0 °F 61.0 °F 93% 30.21 in 10.0 mi NE 3.5 mph - N/A   Mostly Cloudy